Location: Newark
(12.4436°N, 0.6167°W)
Time: 01:30:03
(UTC+00:00)

Transit 2A - Pass Details

Date: 14 December 2019
Orbit: 601 x 958 km, 66.7° (Epoch: 23 January)

Event Time Altitude Azimuth Distance (km) Brightness Sun altitude
Rises 16:48:50 0° 319° (NW) 3,020 9.3 10.3°
Reaches altitude 10° 16:51:22 10° 307° (NW) 2,159 8.8 9.7°
Maximum altitude 16:55:27 27° 250° (WSW) 1,418 9.2 8.8°
Drops below altitude 10° 16:59:53 10° 194° (SSW) 2,354 9.2 7.9°
Sets 17:02:47 0° 182° (S) 3,351 9.7 7.2°
